Carrollton, GA

5:57 AM EDT on September 21, 2017 (GMT -0400)
West Georgia Regional-Gray

Weather History for KCTJ - January, 2014

Change the Weather History Date:

Friday, January 31, 2014

  Actual Average Record
Temperature  
Mean Temperature 37 °F -  
Max Temperature 55 °F 56 °F 78 °F (1950)
Min Temperature 19 °F 30 °F 5 °F (1966)
Degree Days  
Heating Degree Days 28    
Moisture  
Dew Point 18 °F    
Average Humidity 57    
Maximum Humidity 93    
Minimum Humidity 17    
Precipitation  
Precipitation 0.00 in - - ()
Sea Level Pressure  
Sea Level Pressure 30.17 in    
Wind  
Wind Speed 0 mph (South)    
Max Wind Speed 6 mph    
Max Gust Speed -    
Visibility 10 miles    
Events      
Averages and records for this station are not official NWS values.
T = Trace of Precipitation, MM = Missing Value Source: NWS Daily Summary

Daily Weather History Graph

Daily Weather History Graph

Search for Another Location

Airport or City:

Trip Planner

Search our weather history database for the weather conditions in past years. The results will help you decide how hot, cold, wet, or windy it might be!

Date:

Astronomy

Jan. 31, 2014 Rise Set
Actual Time 7:37 AM EST 6:10 PM EST
Civil Twilight 7:11 AM EST 6:37 PM EST
Nautical Twilight 6:41 AM EST 7:06 PM EST
Astronomical Twilight 6:12 AM EST 7:36 PM EST
Moon 7:51 AM EST (1/31) 7:27 PM EST (1/31)
Length of Visible Light 11h 25m
Length of Day
10h 33m
New Moon, 1% of the Moon is Illuminated
Jan 31
New Moon
Feb 6
First Quarter
Feb 14
Full
Feb 22
Last Quarter
Mar 1
New

Hourly Weather History & Observations

Time (EST) Temp. Windchill Dew Point Humidity Pressure Visibility Wind Dir Wind Speed Gust Speed Precip Events Conditions
12:15 AM 24.8 °F - 19.4 °F 80% 30.18 in 10.0 mi Calm Calm - N/A   Clear
12:35 AM 24.8 °F - 17.6 °F 74% 30.17 in 10.0 mi Calm Calm - N/A   Clear
12:55 AM 23.0 °F - 17.6 °F 80% 30.16 in 10.0 mi Calm Calm - N/A   Clear
1:15 AM 23.0 °F - 19.4 °F 86% 30.17 in 10.0 mi Calm Calm - N/A   Clear
1:35 AM 23.0 °F - 17.6 °F 80% 30.16 in 10.0 mi Calm Calm - N/A   Clear
1:55 AM 23.0 °F - 19.4 °F 86% 30.18 in 10.0 mi Calm Calm - N/A   Clear
2:15 AM 23.0 °F - 19.4 °F 86% 30.19 in 10.0 mi Calm Calm - N/A   Clear
2:35 AM 21.2 °F - 17.6 °F 86% 30.18 in 10.0 mi Calm Calm - N/A   Clear
2:55 AM 23.0 °F - 19.4 °F 86% 30.18 in 10.0 mi Calm Calm - N/A   Clear
3:15 AM 23.0 °F - 19.4 °F 86% 30.18 in 10.0 mi Calm Calm - N/A   Clear
3:35 AM 21.2 °F - 17.6 °F 86% 30.17 in 10.0 mi Calm Calm - N/A   Clear
3:55 AM 21.2 °F - 19.4 °F 93% 30.17 in 10.0 mi Calm Calm - N/A   Clear
4:15 AM 21.2 °F - 17.6 °F 86% 30.16 in 10.0 mi Calm Calm - N/A   Clear
4:35 AM 21.2 °F - 17.6 °F 86% 30.16 in 10.0 mi Calm Calm - N/A   Clear
4:55 AM 21.2 °F - 17.6 °F 86% 30.16 in 10.0 mi Calm Calm - N/A   Clear
5:15 AM 19.4 °F - 17.6 °F 93% 30.16 in 10.0 mi Calm Calm - N/A   Clear
5:35 AM 21.2 °F - 17.6 °F 86% 30.17 in 10.0 mi Calm Calm - N/A   Clear
5:55 AM 21.2 °F - 17.6 °F 86% 30.18 in 10.0 mi Calm Calm - N/A   Clear
6:15 AM 19.4 °F - 17.6 °F 93% 30.18 in 10.0 mi Calm Calm - N/A   Clear
6:35 AM 19.4 °F 14.3 °F 17.6 °F 93% 30.19 in 10.0 mi North 3.5 mph - N/A   Clear
6:55 AM 21.2 °F - 19.4 °F 93% 30.19 in 10.0 mi Calm Calm - N/A   Clear
7:15 AM 19.4 °F - 17.6 °F 93% 30.19 in 10.0 mi Calm Calm - N/A   Clear
7:35 AM 19.4 °F - 17.6 °F 93% 30.19 in 10.0 mi Calm Calm - N/A   Clear
7:55 AM 19.4 °F - 17.6 °F 93% 30.19 in 10.0 mi Calm Calm - N/A   Clear
8:15 AM 21.2 °F - 17.6 °F 86% 30.19 in 10.0 mi Calm Calm - N/A   Clear
8:35 AM 24.8 °F - 19.4 °F 80% 30.20 in 10.0 mi Calm Calm - N/A   Clear
8:55 AM 28.4 °F 24.6 °F 23.0 °F 80% 30.21 in 10.0 mi North 3.5 mph - N/A   Clear
9:15 AM 32.0 °F - 23.0 °F 69% 30.22 in 10.0 mi Calm Calm - N/A   Clear
9:35 AM 33.8 °F - 21.2 °F 60% 30.22 in 10.0 mi Calm Calm - N/A   Clear
9:55 AM 35.6 °F 32.8 °F 19.4 °F 52% 30.22 in 10.0 mi SSE 3.5 mph - N/A   Clear
10:15 AM 35.6 °F 31.7 °F 19.4 °F 52% 30.22 in 10.0 mi SSE 4.6 mph - N/A   Clear
10:35 AM 35.6 °F 30.7 °F 19.4 °F 52% 30.22 in 10.0 mi SE 5.8 mph - N/A   Clear
10:55 AM 37.4 °F - 19.4 °F 48% 30.22 in 10.0 mi Calm Calm - N/A   Clear
11:15 AM 41.0 °F - 19.4 °F 42% 30.22 in 10.0 mi Calm Calm - N/A   Clear
11:35 AM 42.8 °F - 21.2 °F 42% 30.22 in 10.0 mi Calm Calm - N/A   Clear
11:55 AM 44.6 °F - 19.4 °F 37% 30.21 in 10.0 mi Calm Calm - N/A   Clear
12:15 PM 44.6 °F - 19.4 °F 37% 30.20 in 10.0 mi Calm Calm - N/A   Clear
12:35 PM 46.4 °F - 19.4 °F 34% 30.19 in 10.0 mi Calm Calm - N/A   Clear
12:55 PM 46.4 °F - 19.4 °F 34% 30.18 in 10.0 mi Calm Calm - N/A   Clear
1:15 PM 50.0 °F - 19.4 °F 30% 30.18 in 10.0 mi Calm Calm - N/A   Clear
1:35 PM 51.8 °F - 17.6 °F 26% 30.16 in 10.0 mi SW 3.5 mph - N/A   Clear
1:55 PM 51.8 °F - 14.0 °F 22% 30.15 in 10.0 mi Calm Calm - N/A   Clear
2:15 PM 53.6 °F - 14.0 °F 21% 30.14 in 10.0 mi Calm Calm - N/A   Clear
2:35 PM 53.6 °F - 14.0 °F 21% 30.13 in 10.0 mi SSW 3.5 mph - N/A   Clear
2:55 PM 53.6 °F - 14.0 °F 21% 30.13 in 10.0 mi Calm Calm - N/A   Clear
3:15 PM 55.4 °F - 12.2 °F 18% 30.13 in 10.0 mi Calm Calm - N/A   Clear
3:35 PM 55.4 °F - 12.2 °F 18% 30.13 in 10.0 mi SW 3.5 mph - N/A   Clear
3:55 PM 55.4 °F - 10.4 °F 17% 30.12 in 10.0 mi SW 3.5 mph - N/A   Clear
4:15 PM 55.4 °F - 12.2 °F 18% 30.12 in 10.0 mi SSE 4.6 mph - N/A   Clear
4:35 PM 55.4 °F - 14.0 °F 20% 30.12 in 10.0 mi Calm Calm - N/A   Clear
4:55 PM 55.4 °F - 12.2 °F 18% 30.13 in 10.0 mi SSE 3.5 mph - N/A   Clear
5:15 PM 53.6 °F - 14.0 °F 21% 30.13 in 10.0 mi SSE 3.5 mph - N/A   Clear
5:35 PM 53.6 °F - 12.2 °F 19% 30.13 in 10.0 mi Calm Calm - N/A   Clear
5:55 PM 51.8 °F - 14.0 °F 22% 30.13 in 10.0 mi Calm Calm - N/A   Clear
6:15 PM 46.4 °F - 15.8 °F 29% 30.13 in 10.0 mi Calm Calm - N/A   Clear
6:35 PM 42.8 °F - 15.8 °F 34% 30.13 in 10.0 mi Calm Calm - N/A   Clear
6:55 PM 41.0 °F - 14.0 °F 33% 30.14 in 10.0 mi Calm Calm - N/A   Clear
7:15 PM 39.2 °F - 15.8 °F 39% 30.13 in 10.0 mi Calm Calm - N/A   Clear
7:35 PM 37.4 °F - 17.6 °F 45% 30.14 in 10.0 mi Calm Calm - N/A   Clear
7:55 PM 37.4 °F - 17.6 °F 45% 30.14 in 10.0 mi Calm Calm - N/A   Clear
8:15 PM 35.6 °F - 17.6 °F 48% 30.14 in 10.0 mi Calm Calm - N/A   Clear
8:35 PM 35.6 °F - 14.0 °F 41% 30.14 in 10.0 mi Calm Calm - N/A   Clear
8:55 PM 33.8 °F - 17.6 °F 52% 30.14 in 10.0 mi Calm Calm - N/A   Clear
9:15 PM 33.8 °F - 19.4 °F 56% 30.15 in 10.0 mi Calm Calm - N/A   Clear
9:35 PM 33.8 °F - 21.2 °F 60% 30.15 in 10.0 mi Calm Calm - N/A   Clear
9:55 PM 33.8 °F - 19.4 °F 56% 30.14 in 10.0 mi Calm Calm - N/A   Clear
10:15 PM 32.0 °F - 17.6 °F 55% 30.14 in 10.0 mi Calm Calm - N/A   Clear
10:35 PM 32.0 °F - 21.2 °F 64% 30.14 in 10.0 mi Calm Calm - N/A   Clear
10:55 PM 32.0 °F - 19.4 °F 60% 30.14 in 10.0 mi Calm Calm - N/A   Clear
11:15 PM 32.0 °F - 23.0 °F 69% 30.14 in 10.0 mi Calm Calm - N/A   Clear
11:35 PM 32.0 °F - 19.4 °F 60% 30.14 in 10.0 mi Calm Calm - N/A   Clear
11:55 PM 32.0 °F - 19.4 °F 60% 30.13 in 10.0 mi Calm Calm - N/A   Clear